Weather History for Kemmerer, WY

Change the Weather History Date:

Saturday, September 21, 2013

  Actual Average Record
Temperature  
Mean Temperature 54 °F -  
Max Temperature 71 °F 64 °F 80 °F (1967)
Min Temperature 37 °F 30 °F 5 °F (1983)
Degree Days  
Heating Degree Days 11    
Growing Degree Days 4 (Base 50)    
Moisture  
Dew Point 28 °F    
Average Humidity 40    
Maximum Humidity 81    
Minimum Humidity 14    
Precipitation  
Precipitation 0.00 in - - ()
Sea Level Pressure  
Sea Level Pressure 30.00 in    
Wind  
Wind Speed 10 mph (SW)    
Max Wind Speed 25 mph    
Max Gust Speed 34 mph    
Visibility 10 miles    
Events      
Averages and records for this station are not official NWS values.
T = Trace of Precipitation, MM = Missing Value Source: NWS Daily Summary

Daily Weather History Graph

Daily Weather History Graph

Search for Another Location

Airport:

Trip Planner

Search our weather history database for the weather conditions in past years. The results will help you decide how hot, cold, wet, or windy it might be!

Date:

Astronomy

Sep. 21, 2013 Rise Set
Actual Time 7:08 AM MDT 7:20 PM MDT
Civil Twilight 6:41 AM MDT 7:48 PM MDT
Nautical Twilight 6:08 AM MDT 8:20 PM MDT
Astronomical Twilight 5:35 AM MDT 8:54 PM MDT
Moon 8:30 PM MDT (9/21) 9:33 AM MDT (9/21)
Length of Visible Light 13h 07m
Length of Day
12h 11m
Waning Gibbous, 94% of the Moon is Illuminated
Sep 21
Waning Gibbous
Sep 26
Last Quarter
Oct 4
New
Oct 11
First Quarter
Oct 18
Full

Hourly Weather History & Observations

Time (MDT) Temp. Windchill Dew Point Humidity Pressure Visibility Wind Dir Wind Speed Gust Speed Precip Events Conditions
12:15 AM 44.6 °F 42.2 °F 30.2 °F 57% 30.11 in 10.0 mi North 4.6 mph - N/A   Clear
12:35 AM 44.6 °F 41.4 °F 32.0 °F 61% 30.11 in 10.0 mi North 5.8 mph - N/A   Clear
12:55 AM 42.8 °F 38.0 °F 32.0 °F 66% 30.11 in 10.0 mi North 8.1 mph - N/A   Clear
1:15 AM 44.6 °F 39.2 °F 32.0 °F 61% 30.11 in 10.0 mi North 10.4 mph - N/A   Clear
1:35 AM 44.6 °F 39.2 °F 30.2 °F 57% 30.10 in 10.0 mi North 10.4 mph - N/A   Clear
1:55 AM 42.8 °F 37.0 °F 30.2 °F 61% 30.10 in 10.0 mi North 10.4 mph - N/A   Clear
2:15 AM 42.8 °F 37.5 °F 30.2 °F 61% 30.09 in 10.0 mi North 9.2 mph - N/A   Clear
2:35 AM 41.0 °F 34.7 °F 30.2 °F 65% 30.09 in 10.0 mi North 10.4 mph - N/A   Clear
2:55 AM 41.0 °F 34.3 °F 30.2 °F 65% 30.09 in 10.0 mi North 11.5 mph - N/A   Clear
3:15 AM 41.0 °F 34.7 °F 32.0 °F 70% 30.09 in 10.0 mi North 10.4 mph - N/A   Clear
3:35 AM 41.0 °F 34.3 °F 32.0 °F 70% 30.09 in 10.0 mi North 11.5 mph - N/A   Clear
3:55 AM 41.0 °F 34.7 °F 30.2 °F 65% 30.09 in 10.0 mi North 10.4 mph - N/A   Clear
4:15 AM 39.2 °F 32.5 °F 32.0 °F 75% 30.09 in 10.0 mi North 10.4 mph - N/A   Clear
4:35 AM 39.2 °F 32.5 °F 32.0 °F 75% 30.09 in 10.0 mi North 10.4 mph - N/A   Clear
5:15 AM 37.4 °F 32.8 °F 32.0 °F 81% 30.09 in 10.0 mi North 5.8 mph - N/A   Clear
5:55 AM 37.4 °F 32.8 °F 32.0 °F 81% 30.09 in 10.0 mi North 5.8 mph - N/A   Clear
6:15 AM 37.4 °F 33.8 °F 32.0 °F 81% 30.09 in 10.0 mi North 4.6 mph - N/A   Clear
6:35 AM 37.4 °F 32.8 °F 32.0 °F 81% 30.08 in 10.0 mi North 5.8 mph - N/A   Clear
6:55 AM 37.4 °F 33.8 °F 32.0 °F 81% 30.08 in 10.0 mi North 4.6 mph - N/A   Clear
7:15 AM 37.4 °F - 32.0 °F 81% 30.09 in 10.0 mi Calm Calm - N/A   Clear
7:35 AM 41.0 °F 39.0 °F 32.0 °F 70% 30.09 in 10.0 mi North 3.5 mph - N/A   Clear
7:55 AM 41.0 °F 35.8 °F 32.0 °F 70% 30.08 in 10.0 mi North 8.1 mph - N/A   Scattered Clouds
8:15 AM 44.6 °F - 32.0 °F 61% 30.08 in 10.0 mi Calm Calm - N/A   Scattered Clouds
8:35 AM 46.4 °F - 32.0 °F 57% 30.08 in 10.0 mi Calm Calm - N/A   Clear
8:55 AM 50.0 °F - 32.0 °F 50% 30.08 in 10.0 mi Calm Calm - N/A   Clear
9:15 AM 51.8 °F - 32.0 °F 47% 30.08 in 10.0 mi Calm Calm - N/A   Clear
9:35 AM 55.4 °F - 32.0 °F 41% 30.08 in 10.0 mi SE 4.6 mph - N/A   Clear
9:55 AM 59.0 °F - 30.2 °F 34% 30.08 in 10.0 mi South 4.6 mph - N/A   Clear
10:15 AM 60.8 °F - 30.2 °F 31% 30.08 in 10.0 mi South 9.2 mph - N/A   Clear
10:35 AM 62.6 °F - 30.2 °F 30% 30.07 in 10.0 mi South 12.7 mph - N/A   Clear
10:55 AM 64.4 °F - 28.4 °F 26% 30.07 in 10.0 mi South 13.8 mph - N/A   Clear
11:15 AM 66.2 °F - 26.6 °F 23% 30.06 in 10.0 mi SSW 12.7 mph 19.6 mph N/A   Clear
11:35 AM 68.0 °F - 23.0 °F 18% 30.06 in 10.0 mi WSW 23.0 mph 28.8 mph N/A   Clear
11:55 AM 68.0 °F - 21.2 °F 17% 30.04 in 10.0 mi SW 17.3 mph 26.5 mph N/A   Clear
12:15 PM 69.8 °F - 21.2 °F 16% 30.04 in 10.0 mi SW 21.9 mph 28.8 mph N/A   Clear
12:35 PM 68.0 °F - 21.2 °F 17% 30.03 in 10.0 mi SW 18.4 mph 34.5 mph N/A   Clear
12:55 PM 69.8 °F - 21.2 °F 16% 30.02 in 10.0 mi SW 23.0 mph 31.1 mph N/A   Clear
1:15 PM 69.8 °F - 21.2 °F 16% 30.02 in 10.0 mi SW 18.4 mph 28.8 mph N/A   Clear
1:35 PM 71.6 °F - 19.4 °F 14% 30.01 in 10.0 mi SSW 23.0 mph 29.9 mph N/A   Clear
1:55 PM 71.6 °F - 19.4 °F 14% 29.99 in 10.0 mi SSW 15.0 mph 28.8 mph N/A   Clear
2:15 PM 71.6 °F - 19.4 °F 14% 29.98 in 10.0 mi WSW 23.0 mph 29.9 mph N/A   Clear
2:35 PM 71.6 °F - 21.2 °F 15% 29.97 in 10.0 mi SW 16.1 mph 28.8 mph N/A   Clear
2:55 PM 71.6 °F - 19.4 °F 14% 29.97 in 10.0 mi SSW 16.1 mph 31.1 mph N/A   Clear
3:15 PM 71.6 °F - 19.4 °F 14% 29.96 in 10.0 mi SW 17.3 mph 26.5 mph N/A   Clear
3:35 PM 71.6 °F - 19.4 °F 14% 29.95 in 10.0 mi SW 13.8 mph 32.2 mph N/A   Clear
3:55 PM 71.6 °F - 19.4 °F 14% 29.94 in 10.0 mi SSW 21.9 mph 28.8 mph N/A   Clear
4:15 PM 71.6 °F - 19.4 °F 14% 29.94 in 10.0 mi SW 19.6 mph 26.5 mph N/A   Clear
4:35 PM 71.6 °F - 19.4 °F 14% 29.92 in 10.0 mi SW 15.0 mph 33.4 mph N/A   Clear
4:55 PM 71.6 °F - 19.4 °F 14% 29.92 in 10.0 mi SW 19.6 mph 29.9 mph N/A   Clear
5:15 PM 71.6 °F - 19.4 °F 14% 29.91 in 10.0 mi SW 25.3 mph 32.2 mph N/A   Clear
5:35 PM 71.6 °F - 21.2 °F 15% 29.90 in 10.0 mi SSW 15.0 mph 25.3 mph N/A   Clear
5:55 PM 69.8 °F - 21.2 °F 16% 29.90 in 10.0 mi SW 15.0 mph 29.9 mph N/A   Clear
6:15 PM 69.8 °F - 21.2 °F 16% 29.89 in 10.0 mi SW 23.0 mph 26.5 mph N/A   Clear
6:35 PM 68.0 °F - 23.0 °F 18% 29.89 in 10.0 mi SW 19.6 mph - N/A   Clear
6:55 PM 66.2 °F - 24.8 °F 21% 29.88 in 10.0 mi SW 16.1 mph 21.9 mph N/A   Clear
7:15 PM 62.6 °F - 26.6 °F 26% 29.87 in 10.0 mi SW 6.9 mph - N/A   Clear
7:35 PM 60.8 °F - 26.6 °F 27% 29.87 in 10.0 mi SW 4.6 mph - N/A   Clear
7:55 PM 60.8 °F - 26.6 °F 27% 29.87 in 10.0 mi Calm Calm - N/A   Scattered Clouds
8:15 PM 60.8 °F - 26.6 °F 27% 29.87 in 10.0 mi SSE 5.8 mph - N/A   Mostly Cloudy
8:35 PM 62.6 °F - 26.6 °F 26% 29.87 in 10.0 mi South 5.8 mph - N/A   Mostly Cloudy
8:55 PM 60.8 °F - 26.6 °F 27% 29.87 in 10.0 mi SSE 5.8 mph - N/A   Mostly Cloudy
9:15 PM 62.6 °F - 28.4 °F 27% 29.87 in 10.0 mi South 5.8 mph - N/A   Overcast
9:35 PM 59.0 °F - 30.2 °F 34% 29.87 in 10.0 mi SSE 5.8 mph - N/A   Mostly Cloudy
9:55 PM 60.8 °F - 32.0 °F 34% 29.87 in 10.0 mi SSE 10.4 mph 16.1 mph N/A   Scattered Clouds
10:15 PM 57.2 °F - 33.8 °F 41% 29.87 in 10.0 mi SSE 8.1 mph - N/A   Scattered Clouds
10:35 PM 57.2 °F - 33.8 °F 41% 29.87 in 10.0 mi SE 5.8 mph - N/A   Clear
10:55 PM 55.4 °F - 35.6 °F 47% 29.87 in 10.0 mi South 6.9 mph - N/A   Clear
11:15 PM 57.2 °F - 35.6 °F 44% 29.86 in 10.0 mi South 9.2 mph - N/A   Clear
11:35 PM 55.4 °F - 35.6 °F 47% 29.86 in 10.0 mi South 9.2 mph - N/A   Clear
11:55 PM 55.4 °F - 37.4 °F 51% 29.85 in 10.0 mi SSE 4.6 mph - N/A   Clear